Temperature
17 17 17 17 17 17 17 17 18 17 17 17 18 17 17 17 17 17 17 17 17 17 17 17 17 17 17 17 17 17 17 16 16 16 16 16 16 16 16 16 16 16 16
17 17 17 17 17 17 17 18 18 17 17 17 17 17 17 17 17 17 17 17 17 17 17 17 17 17 17 17 17 17 16 16 16 16 16 16 16 16 16 16 16 16 16
17 17 17 17 17 17 17 18 18 17 17 17 17 17 17 17 17 17 17 17 17 17 17 17 17 17 17 17 16 16 16 16 16 16 16 16 16 16 16 16 16 16 16
17 17 17 17 17 17 17 17 18 17 17 17 17 17 17 17 17 17 17 17 17 17 17 17 17 17 17 17 17 16 16 16 16 16 16 16 16 16 16 16 16 16 16
17 17 17 17 17 17 17 17 17 17 17 17 17 17 17 17 17 17 17 17 17 17 17 17 17 17 17 17 17 16 16 16 16 16 16 16 16 16 16 16 16 16 16
17 17 17 17 17 17 17 17 17 17 17 17 18 17 17 17 17 17 17 17 17 17 17 16 16 17 17 17 17 17 16 16 16 16 16 16 16 16 16 16 16 16 16
17 17 17 17 17 17 17 17 17 17 17 17 17 17 17 17 17 17 17 17 17 17 17 17 16 16 17 17 17 17 17 16 16 16 16 16 16 16 16 16 16 16 16
17 17 17 17 17 17 17 17 17 17 17 17 17 18 18 18 17 17 17 17 17 17 17 17 17 17 16 16 16 17 17 16 16 16 16 16 16 16 16 16 16 16 16
17 17 17 17 17 17 17 17 17 17 17 17 17 17 18 18 18 17 17 17 17 17 17 17 16 16 16 16 16 16 17 16 16 16 16 16 16 16 16 16 16 16 15
17 17 17 17 17 17 17 17 17 17 17 17 17 17 17 17 17 17 17 17 17 17 17 17 17 17 17 17 17 17 16 16 16 16 16 16 16 16 16 16 15 16 15
17 17 17 17 17 17 17 17 17 17 17 17 17 17 17 17 17 18 18 17 17 17 17 17 17 17 16 16 17 16 17 16 16 16 16 16 16 16 16 16 16 16 16
17 17 17 17 17 17 17 17 17 17 17 17 17 17 17 17 17 17 17 17 17 17 17 17 17 17 16 16 16 16 16 16 16 16 16 16 16 16 16 16 16 16 16
17 17 17 17 17 17 17 17 17 17 17 17 17 17 17 17 17 17 17 17 17 17 17 17 17 17 16 16 16 16 16 16 16 16 16 16 16 16 16 16 16 16 16
18 17 17 17 17 17 17 17 17 17 17 17 17 17 17 17 17 17 17 17 17 18 18 17 17 16 16 16 16 16 16 16 16 16 16 16 16 16 16 16 16 16 15
17 17 17 17 17 17 17 17 17 17 17 16 16 16 16 16 16 17 16 17 17 17 18 17 17 16 16 16 16 16 16 16 16 16 16 16 16 16 16 16 16 15 15
17 17 17 17 17 17 17 17 17 16 17 16 16 16 16 16 16 16 16 16 16 17 17 17 16 16 16 15 16 15 15 16 16 16 16 16 16 16 16 15 15 15 15
17 17 17 17 17 17 17 17 16 16 16 16 16 16 16 16 16 16 16 16 16 16 16 16 16 16 16 15 15 15 15 15 15 16 16 16 15 15 15 15 15 15 15
17 17 17 17 17 17 17 16 16 16 16 16 16 16 16 16 16 16 16 16 16 16 16 16 16 16 15 15 15 15 15 15 15 15 15 15 15 15 15 15 15 15 15
17 17 17 17 17 16 16 16 16 16 16 16 16 16 16 16 16 16 16 16 16 16 15 15 16 16 15 15 15 15 15 15 15 15 15 15 15 15 15 15 15 15 15
17 17 17 17 16 16 16 16 16 16 16 16 16 16 16 15 15 15 15 15 15 15 15 15 16 16 15 15 15 15 15 15 15 15 15 15 15 15 15 15 15 15 14
16 16 16 16 16 16 16 16 16 16 16 16 16 16 15 15 15 15 15 15 15 15 15 15 16 16 15 15 15 15 15 15 15 15 15 15 15 15 15 14 14 14 14
16 16 16 16 16 16 16 16 16 16 15 15 15 15 15 15 15 15 15 15 15 15 15 15 15 15 14 15 14 14 14 15 15 15 14 14 14 14 14 14 14 14 14
16 16 16 15 15 16 16 16 16 15 15 15 15 15 15 15 15 15 15 15 15 15 15 14 14 14 14 14 14 14 14 14 14 14 14 14 14 14 14 14 14 14 14
16 15 15 15 15 15 15 15 15 15 15 15 14 14 14 15 14 14 14 14 14 14 14 14 14 14 14 14 14 14 14 14 14 14 14 14 14 14 14 13 13 13 13
15 15 15 15 15 15 15 15 15 15 14 14 14 14 14 14 14 14 14 13 13 13 14 14 14 14 14 14 14 13 13 13 14 14 14 13 13 13 13 13 13 13 13
15 15 14 14 14 14 14 14 14 14 13 13 14 13 14 14 14 14 13 13 13 13 13 13 13 13 13 13 13 13 13 13 13 14 13 13 13 13 13 13 13 13 13
Wind_Speed
3 3 3 4 4 5 5 5 4 5 4 4 4 5 5 4 4 4 6 10 9 9 9 10 10 10 10 10 10 10 10 10 10 10 9 10 10 10 10 10 9 9 9
3 3 3 3 3 4 4 4 4 5 4 4 4 4 4 4 4 4 5 8 10 10 10 10 10 10 11 11 11 11 10 10 10 10 10 10 9 9 10 9 9 9 9
3 2 2 3 3 4 4 4 4 4 4 4 4 4 4 4 4 4 4 5 8 11 11 10 10 10 10 11 11 11 10 11 11 11 10 10 10 9 9 9 9 8 8
3 3 2 2 3 3 3 3 3 3 3 3 3 2 3 3 4 4 4 5 5 6 10 12 11 11 11 11 11 10 11 11 11 12 12 11 11 10 10 10 9 9 8
3 2 2 2 3 3 3 2 3 2 3 2 2 3 2 3 3 4 4 4 5 5 5 10 12 11 11 10 10 10 10 10 10 11 11 12 11 11 10 10 9 9 9
3 2 2 2 2 2 2 2 3 2 1 2 1 2 1 1 2 3 3 4 4 5 6 6 8 10 12 11 10 10 10 10 10 10 10 11 11 11 10 11 10 10 10
3 2 2 3 2 2 2 3 2 3 2 1 1 1 1 2 2 2 3 3 4 5 5 5 5 6 7 12 12 11 10 10 10 10 10 10 10 11 11 11 11 10 10
3 2 2 2 2 2 2 2 2 1 1 1 2 2 2 2 2 3 3 4 3 4 5 6 5 5 6 6 8 11 11 11 10 10 10 10 10 12 12 13 12 11 11
3 2 2 1 1 2 2 2 2 3 1 1 1 2 2 1 1 2 3 3 3 3 4 5 5 6 6 6 6 9 11 11 10 10 9 9 10 11 12 12 12 12 12
3 2 2 1 1 1 1 2 2 2 2 2 2 2 2 2 2 1 3 3 4 4 4 4 5 5 6 6 5 5 8 9 9 9 9 10 11 11 11 11 11 11 11
2 2 2 2 1 1 1 1 1 2 2 2 2 2 2 2 3 3 2 2 2 3 4 4 4 4 5 6 5 6 8 8 8 9 10 10 10 11 11 12 11 11 11
2 3 3 2 2 2 2 2 2 3 2 2 3 2 3 2 3 3 3 3 3 2 3 3 4 4 5 5 5 5 7 7 8 8 9 10 10 11 11 11 11 11 11
3 3 3 3 3 3 3 3 3 3 3 4 4 4 3 3 3 3 4 3 3 3 3 4 4 4 5 5 5 7 8 8 8 8 9 10 10 11 11 11 11 11 11
3 3 3 4 4 4 4 4 4 4 3 4 4 4 4 4 4 4 4 4 4 3 3 3 2 3 4 5 4 7 7 9 9 9 9 9 10 11 11 11 11 11 11
3 4 4 5 5 5 4 4 4 4 4 4 4 4 4 4 4 4 4 4 5 4 4 3 3 3 4 4 4 6 6 7 9 9 9 9 10 11 11 11 11 11 11
3 4 4 4 4 5 5 4 4 4 4 4 4 4 4 4 3 4 4 4 5 5 5 3 3 3 2 4 5 6 6 7 10 11 10 10 10 10 10 11 11 11 11
4 5 5 4 4 5 5 5 5 5 5 5 5 5 5 5 4 4 5 5 5 5 5 5 4 3 4 5 4 6 7 8 8 12 12 11 11 11 11 11 11 11 11
5 5 5 5 5 5 5 6 6 6 6 6 6 6 6 5 5 5 5 5 5 5 6 6 5 4 5 5 5 6 6 7 7 9 12 12 12 12 12 12 12 11 11
5 5 5 5 5 5 5 6 6 6 6 6 7 7 7 6 6 5 6 6 5 6 6 7 6 5 5 5 5 6 7 6 7 8 12 14 14 14 13 13 13 13 12
5 5 5 5 5 6 6 6 6 6 6 7 6 6 7 7 7 7 6 6 6 6 6 7 7 6 5 5 5 6 6 5 6 6 6 8 11 14 15 15 14 14 13
5 5 5 5 5 5 5 5 5 6 5 6 6 6 6 6 5 6 6 6 6 6 6 7 7 6 6 5 5 6 6 6 5 5 5 6 6 7 9 13 14 13 13
5 5 5 5 5 4 1 2 4 4 4 5 6 6 6 6 6 6 6 6 6 8 8 7 7 6 7 6 5 6 6 6 6 4 5 6 5 6 6 8 10 12 14
5 5 5 4 4 3 0 1 3 4 5 5 6 6 6 5 5 6 6 8 7 7 8 8 8 8 7 6 6 7 6 7 7 5 5 7 5 6 6 7 10 12 13
4 4 4 4 4 3 2 2 3 4 5 5 6 6 6 6 5 6 7 6 6 6 7 8 7 8 7 6 7 8 8 8 8 6 5 7 6 6 7 6 10 12 12
3 4 3 4 4 3 3 3 4 3 4 5 5 5 5 5 3 5 7 7 7 6 6 6 7 7 6 7 7 7 6 7 7 6 4 6 7 6 7 7 7 13 14
3 2 2 2 2 2 1 2 4 4 4 4 4 4 3 3 3 4 6 7 8 7 6 6 7 9 9 8 9 8 7 7 7 7 4 5 7 6 6 6 6 7 10
Wind_Direction
139 141 137 146 156 152 158 165 164 158 158 155 161 162 161 157 161 170 156 167 182 194 205 202 198 200 199 200 198 199 204 205 206 207 209 212 212 210 212 214 213 210 211
145 150 147 147 149 153 152 159 156 159 158 153 163 164 168 169 170 182 179 172 187 198 205 206 205 205 204 205 205 206 208 209 208 208 208 210 211 214 215 216 212 213 212
147 152 148 149 145 152 154 160 154 152 155 156 160 168 174 182 181 187 196 190 183 190 200 204 207 208 205 205 204 205 208 210 209 208 209 210 211 214 214 213 211 209 210
157 166 154 145 149 159 164 157 165 154 155 161 157 165 167 176 186 194 197 193 190 189 192 200 206 208 209 209 210 210 212 213 213 214 214 214 214 216 218 217 213 211 213
154 163 143 129 160 161 169 174 136 167 159 154 163 162 182 191 191 189 194 199 196 204 201 187 199 205 208 209 211 213 214 214 215 218 219 219 219 219 220 215 212 215 216
138 150 153 137 163 155 150 143 135 153 172 170 162 132 185 204 204 190 207 197 199 206 208 201 199 200 204 211 214 215 215 215 215 215 220 223 223 221 220 219 218 220 219
127 145 136 133 164 154 157 155 153 159 172 157 174 187 197 212 209 208 214 208 202 204 206 211 217 214 199 201 210 214 213 213 214 214 217 222 224 223 220 217 217 219 220
149 152 142 165 166 154 166 165 173 214 200 195 234 228 223 201 207 207 204 209 216 205 205 210 212 213 221 209 193 203 210 212 213 213 216 222 226 223 221 217 217 219 221
154 134 146 164 162 188 173 183 195 206 226 230 244 261 272 253 211 180 205 210 211 213 215 208 211 213 215 218 207 199 204 210 213 217 220 223 225 220 217 216 218 222 224
160 156 157 165 177 188 170 205 190 203 214 217 208 246 271 292 265 218 200 194 213 215 220 220 214 209 213 215 211 206 199 208 216 222 226 229 229 220 214 215 219 224 225
167 172 163 172 179 199 186 213 218 233 222 232 224 215 231 239 246 250 240 240 221 215 211 216 219 218 217 221 219 204 195 207 218 225 230 233 232 220 216 218 222 225 226
170 180 182 184 192 204 196 209 215 215 237 246 258 246 241 246 242 247 246 250 245 231 220 220 220 217 220 220 214 177 194 211 220 227 233 236 232 224 219 221 224 225 228
186 183 191 193 202 209 213 219 218 242 236 235 243 249 254 257 261 258 257 258 259 248 227 220 214 217 218 215 200 184 198 211 222 228 232 234 230 227 223 223 225 228 231
202 183 195 201 207 213 212 208 220 224 231 237 246 251 252 254 250 238 243 255 259 259 236 239 220 217 224 225 196 205 209 203 217 225 230 232 232 229 225 223 226 229 233
205 196 202 208 213 216 219 222 228 231 230 238 244 236 242 248 246 246 244 252 261 266 267 248 230 212 219 223 199 225 227 203 212 220 227 231 231 229 227 227 228 230 232
217 218 218 217 221 221 221 229 236 237 237 240 248 256 254 250 249 246 243 244 252 262 272 274 261 246 240 242 206 235 235 205 210 216 224 228 229 228 229 230 231 230 232
217 219 221 218 221 226 227 230 235 240 241 243 246 241 242 254 252 247 241 242 243 249 256 264 262 250 239 251 244 246 242 238 221 206 217 225 228 230 231 232 231 230 230
222 222 227 228 231 234 234 234 236 236 239 244 248 247 245 238 237 252 253 249 248 248 253 262 262 254 243 244 246 251 253 248 245 202 207 218 224 228 231 231 229 226 224
228 230 228 231 236 242 244 241 238 238 239 243 245 246 247 244 243 244 249 252 251 248 247 255 258 259 256 252 251 250 251 252 252 220 203 211 218 224 227 227 226 224 222
226 229 232 237 239 241 244 246 239 240 244 243 241 244 247 245 244 245 244 248 254 257 250 253 256 255 253 250 251 256 252 243 252 245 227 223 216 218 222 222 222 221 221
232 232 235 240 242 241 244 245 245 241 241 244 245 244 245 250 263 259 259 253 252 253 257 258 259 259 258 258 256 258 262 259 248 248 252 242 226 230 223 217 218 218 221
243 238 238 242 246 249 206 261 261 255 250 250 255 254 245 237 239 237 255 270 272 258 260 263 262 265 267 267 272 267 269 267 266 245 256 257 247 247 240 230 205 209 219
244 242 242 242 244 251 204 231 263 259 254 256 257 259 260 252 240 246 232 228 240 246 250 257 262 262 264 268 272 269 267 270 271 269 260 262 251 252 254 234 195 204 213
240 236 236 235 238 235 191 216 242 248 259 261 261 261 260 264 262 262 256 249 248 245 241 244 256 262 266 271 262 262 267 263 261 254 253 265 262 261 265 250 200 200 211
246 245 235 232 234 228 193 213 235 248 252 256 259 259 260 264 289 287 263 256 255 255 237 222 238 249 262 261 261 264 264 264 267 262 245 263 271 271 266 256 217 200 212
245 245 233 231 231 229 175 208 249 253 258 261 255 253 250 267 283 274 256 257 257 259 261 243 233 237 242 238 230 244 258 262 271 270 255 259 268 273 270 256 246 230 225
Height
1535 1536 1537 1538 1541 1542 1544 1546 1548 1550 1551 1552 1554 1556 1557 1559 1560 1562 1563 1563 1564 1564 1565 1567 1567 1568 1569 1570 1571 1572 1573 1574 1575 1576 1577 1577 1578 1579 1580 1581 1581 1582 1582
1536 1537 1538 1539 1541 1543 1545 1546 1548 1550 1551 1553 1554 1555 1557 1558 1559 1561 1562 1562 1562 1563 1564 1565 1566 1567 1568 1568 1569 1570 1571 1572 1573 1574 1575 1576 1577 1577 1578 1579 1579 1580 1580
1537 1538 1539 1540 1542 1543 1545 1547 1548 1550 1551 1553 1554 1555 1556 1557 1559 1559 1560 1561 1561 1562 1563 1563 1564 1565 1566 1567 1568 1569 1569 1570 1571 1572 1573 1574 1575 1575 1576 1577 1577 1578 1578
1538 1539 1540 1541 1542 1544 1546 1547 1549 1550 1551 1552 1553 1554 1556 1556 1557 1558 1559 1559 1560 1561 1561 1562 1563 1564 1565 1565 1566 1567 1568 1568 1569 1570 1571 1572 1573 1573 1574 1575 1575 1575 1576
1538 1540 1541 1542 1543 1545 1546 1548 1549 1550 1551 1552 1553 1554 1555 1556 1556 1557 1557 1557 1558 1559 1560 1560 1561 1562 1563 1563 1564 1565 1565 1566 1567 1567 1568 1569 1570 1571 1571 1572 1573 1573 1574
1539 1541 1542 1543 1544 1545 1546 1548 1549 1550 1551 1552 1553 1554 1554 1555 1555 1555 1555 1556 1556 1557 1558 1559 1559 1560 1561 1561 1562 1562 1563 1564 1565 1565 1566 1567 1567 1568 1569 1569 1570 1571 1571
1540 1541 1543 1543 1544 1545 1546 1548 1549 1550 1551 1552 1553 1553 1554 1554 1554 1554 1554 1554 1555 1555 1556 1556 1558 1558 1558 1559 1559 1560 1561 1561 1562 1563 1563 1564 1565 1565 1566 1567 1568 1568 1568
1541 1542 1542 1543 1544 1545 1546 1547 1548 1550 1551 1551 1552 1552 1553 1554 1553 1553 1553 1553 1553 1554 1554 1555 1555 1555 1556 1557 1557 1558 1558 1559 1559 1560 1561 1561 1562 1563 1563 1564 1565 1565 1566
1542 1542 1543 1544 1544 1545 1546 1547 1548 1549 1550 1551 1552 1552 1552 1552 1552 1552 1552 1552 1551 1551 1552 1553 1553 1553 1554 1554 1555 1555 1556 1556 1557 1557 1558 1559 1559 1560 1561 1561 1562 1563 1563
1542 1543 1543 1543 1544 1546 1546 1547 1548 1549 1549 1550 1550 1550 1551 1551 1551 1551 1551 1551 1550 1549 1549 1550 1551 1551 1551 1552 1552 1552 1553 1554 1554 1555 1555 1556 1556 1557 1558 1559 1559 1560 1561
1543 1543 1543 1544 1544 1545 1546 1547 1547 1548 1549 1549 1550 1550 1550 1550 1550 1550 1550 1550 1549 1548 1548 1548 1549 1549 1550 1550 1550 1550 1550 1551 1551 1552 1552 1553 1554 1554 1555 1556 1556 1557 1557
1542 1543 1544 1544 1544 1545 1545 1546 1546 1547 1547 1547 1548 1549 1549 1549 1549 1549 1548 1547 1547 1547 1546 1546 1547 1547 1548 1548 1548 1548 1548 1548 1549 1549 1550 1550 1551 1551 1552 1553 1553 1554 1554
1542 1542 1543 1543 1544 1544 1544 1545 1545 1545 1546 1546 1546 1547 1547 1547 1547 1547 1547 1546 1546 1546 1545 1545 1545 1545 1546 1546 1545 1545 1545 1545 1546 1546 1547 1547 1547 1548 1549 1549 1550 1550 1551
1541 1541 1542 1542 1542 1542 1543 1543 1543 1544 1544 1544 1544 1544 1544 1545 1545 1545 1545 1545 1544 1544 1543 1543 1543 1543 1543 1543 1542 1542 1542 1543 1543 1543 1543 1544 1544 1545 1545 1546 1546 1546 1547
1540 1540 1540 1540 1540 1541 1541 1541 1541 1542 1542 1542 1542 1542 1542 1542 1542 1543 1543 1543 1543 1542 1541 1541 1541 1541 1540 1540 1540 1540 1540 1540 1540 1540 1540 1540 1541 1541 1541 1542 1542 1542 1543
1537 1538 1538 1538 1539 1539 1539 1539 1539 1539 1540 1540 1540 1540 1540 1540 1541 1541 1541 1541 1541 1541 1540 1539 1539 1539 1538 1539 1538 1538 1537 1537 1536 1536 1537 1537 1537 1537 1537 1538 1538 1538 1539
1535 1535 1536 1536 1536 1537 1537 1537 1537 1537 1537 1537 1538 1538 1537 1537 1538 1539 1539 1538 1538 1538 1538 1537 1537 1537 1535 1535 1535 1535 1535 1534 1534 1533 1533 1533 1533 1533 1533 1533 1534 1534 1534
1532 1532 1533 1533 1534 1534 1534 1534 1534 1535 1535 1535 1535 1535 1535 1535 1535 1535 1536 1536 1536 1535 1535 1535 1535 1534 1533 1532 1532 1531 1531 1531 1530 1529 1529 1529 1529 1529 1529 1529 1529 1529 1530
1529 1529 1530 1530 1530 1531 1531 1531 1531 1531 1531 1532 1532 1532 1532 1532 1532 1532 1532 1533 1533 1533 1532 1532 1532 1532 1531 1530 1529 1528 1528 1527 1527 1526 1525 1524 1524 1524 1524 1524 1524 1525 1525
1526 1526 1526 1527 1527 1527 1527 1528 1528 1528 1528 1528 1528 1528 1529 1529 1529 1529 1529 1528 1529 1529 1529 1529 1528 1528 1527 1526 1526 1525 1525 1524 1523 1523 1522 1521 1520 1520 1520 1520 1520 1520 1520
1523 1523 1524 1524 1524 1524 1524 1524 1524 1524 1524 1525 1525 1525 1525 1525 1525 1525 1525 1525 1525 1525 1525 1525 1525 1525 1524 1523 1523 1522 1521 1520 1520 1519 1518 1518 1517 1517 1516 1515 1515 1515 1515
1520 1520 1520 1520 1521 1521 1521 1520 1521 1521 1521 1521 1521 1521 1521 1521 1521 1520 1520 1521 1521 1521 1521 1521 1520 1520 1519 1519 1518 1518 1518 1517 1516 1516 1515 1514 1514 1513 1512 1511 1511 1510 1510
1516 1516 1517 1517 1517 1517 1517 1517 1517 1517 1517 1517 1518 1517 1518 1518 1517 1517 1516 1516 1516 1516 1516 1516 1516 1515 1515 1515 1514 1513 1513 1512 1511 1511 1511 1510 1510 1509 1508 1507 1506 1506 1506
1513 1513 1513 1513 1513 1513 1513 1513 1513 1513 1513 1513 1513 1513 1513 1513 1513 1513 1513 1512 1512 1511 1511 1511 1510 1510 1510 1510 1509 1509 1508 1508 1507 1506 1506 1505 1505 1504 1504 1503 1501 1501 1501
1509 1509 1509 1509 1509 1509 1509 1509 1509 1509 1509 1509 1509 1509 1509 1508 1508 1508 1508 1508 1507 1507 1506 1506 1505 1505 1504 1505 1504 1504 1504 1504 1503 1503 1502 1501 1500 1500 1499 1498 1497 1496 1495
1506 1506 1506 1506 1506 1506 1506 1505 1505 1505 1506 1505 1505 1505 1504 1504 1504 1504 1504 1504 1503 1502 1502 1501 1500 1500 1500 1499 1499 1499 1499 1499 1498 1498 1497 1496 1496 1495 1494 1493 1493 1492 1491